CASE2 Weather Reports


Display with metric or nautical units.
time (UTC)temp
F
wind
direction
speed
MPH
gust
MPH
rain 1hr
in
rain 24hr
in
rain mn
in
humidity
%
barometer
mb
20240221081536 42 238 5.0 14.0 0.01 0.06 0.05 91 1006.4
20240221080008 42 229 5.0 15.0 0.00 0.05 0.04 90 1006.4
20240221074505 43 257 4.0 15.0 0.00 0.05 0.04 90 1006.5
20240221073056 42 242 8.0 19.0 0.00 0.05 0.04 91 1006.5
20240221071543 0 0.0 0.0 0.00 0.05 0.04 1006.3
20240221070028 0 0.0 0.0 0.00 0.05 0.04 1006.4
20240221064529 0 0.0 0.0 0.00 0.05 0.04 1006.4
20240221063056 0 0.0 0.0 0.00 0.05 0.04 1006.4
20240221061551 0 0.0 0.0 0.00 0.05 0.04 1006.4
20240221060032 0 0.0 0.0 0.00 0.05 0.04 1006.4
20240221054525 0 0.0 0.0 0.00 0.05 0.04 1006.3
20240221053011 0 0.0 0.0 0.00 0.05 0.04 1006.4
20240221051506 0 0.0 0.0 0.00 0.05 0.04 1006.5
20240221050002 0 0.0 0.0 0.00 0.05 0.04 1006.6
20240221044558 0 0.0 0.0 0.00 0.05 0.04 1006.7
20240221043052 0 0.0 0.0 0.01 0.05 0.04 1007.1
20240221041556 0 0.0 0.0 0.03 0.05 0.04 1006.9
20240221040048 45 223 5.0 14.0 0.04 0.05 0.04 94 1007.0
20240221034550 45 203 4.0 14.0 0.04 0.05 0.04 94 1007.2
20240221033030 44 247 5.0 14.0 0.03 0.04 0.03 93 1007.3
20240221031522 44 239 3.0 12.0 0.01 0.02 0.01 93 1007.6
20240221030004 44 221 2.0 9.0 0.00 0.01 0.00 93 1007.8
20240221024602 44 208 1.0 10.0 0.00 0.01 0.00 93 1007.8
20240221023057 44 167 2.0 9.0 0.00 0.01 0.00 93 1008.3
20240221021548 44 224 4.0 13.0 0.00 0.01 0.00 93 1008.8
20240221020034 44 199 5.0 11.0 0.00 0.01 0.00 93 1009.1
20240221014521 44 225 3.0 9.0 0.00 0.01 0.00 93 1009.6
20240221013011 44 229 3.0 10.0 0.00 0.01 0.00 93 1009.9
20240221011603 44 213 4.0 9.0 0.00 0.01 0.00 93 1010.2
20240221010059 44 229 2.0 7.0 0.00 0.01 0.00 93 1010.7
20240221004528 44 213 1.0 6.0 0.00 0.01 0.00 93 1010.9
20240221003028 44 203 0.0 11.0 0.00 0.01 0.00 92 1011.2
20240221001506 44 238 3.0 10.0 0.00 0.01 0.00 92 1011.4
20240221000007 44 220 4.0 9.0 0.00 0.01 0.00 92 1011.7
20240220234544 44 250 2.0 12.0 0.00 0.01 0.00 92 1012.0
20240220233040 44 226 3.0 9.0 0.00 0.01 0.00 91 1012.2
20240220231522 44 219 5.0 9.0 0.00 0.01 0.00 91 1012.5
20240220230018 44 196 5.0 10.0 0.00 0.01 0.00 92 1012.7
20240220224558 44 231 3.0 8.0 0.00 0.01 0.00 92 1012.8
20240220223054 44 221 4.0 11.0 0.00 0.01 0.01 92 1013.0
20240220221534 44 221 2.0 9.0 0.00 0.01 0.01 92 1013.3
20240220220031 44 212 2.0 14.0 0.00 0.01 0.01 92 1013.8
20240220214517 43 223 5.0 14.0 0.00 0.01 0.01 92 1014.1
20240220213014 43 268 4.0 11.0 0.00 0.01 0.01 93 1014.3
20240220211552 43 225 3.0 9.0 0.00 0.01 0.01 93 1014.5
20240220210051 43 209 1.0 5.0 0.00 0.01 0.01 93 1014.6
20240220204533 43 259 2.0 8.0 0.00 0.01 0.01 93 1014.7
20240220203033 43 225 3.0 8.0 0.00 0.01 0.01 93 1014.8
20240220201522 43 206 2.0 9.0 0.00 0.01 0.01 93 1014.8
20240220200013 43 231 1.0 7.0 0.01 0.01 0.01 93 1015.0
20240220194554 43 244 3.0 10.0 0.01 0.01 0.01 92 1015.3
20240220193054 43 229 1.0 10.0 0.01 0.01 0.01 92 1015.5
20240220191549 44 222 1.0 8.0 0.01 0.01 0.01 91 1015.5
20240220190045 44 217 5.0 9.0 0.00 0.00 0.00 91 1015.7
20240220184523 44 236 1.0 6.0 0.00 0.00 0.00 91 1015.7
20240220183020 44 209 3.0 8.0 0.00 0.00 0.00 91 1015.7
20240220181608 43 223 1.0 5.0 0.00 0.00 0.00 91 1015.8
20240220180100 44 234 2.0 7.0 0.00 0.00 0.00 91 1016.0
20240220174545 44 232 1.0 7.0 0.00 0.00 0.00 90 1016.0
20240220173047 44 266 2.0 8.0 0.00 0.01 0.00 90 1016.2
20240220171532 44 228 1.0 9.0 0.00 0.01 0.00 90 1016.3
20240220170027 44 234 1.0 6.0 0.00 0.01 0.00 89 1016.4
20240220164506 44 231 3.0 9.0 0.00 0.01 0.00 89 1016.5
20240220163009 45 221 0.0 7.0 0.00 0.01 0.00 88 1016.7
20240220161550 45 245 3.0 7.0 0.00 0.01 0.00 88 1016.6
20240220160102 45 240 1.0 10.0 0.00 0.01 0.00 88 1016.8
20240220154530 45 260 1.0 9.0 0.00 0.01 0.00 88 1016.9
20240220153033 45 221 2.0 10.0 0.00 0.02 0.00 88 1017.0
20240220151517 45 236 3.0 11.0 0.00 0.02 0.00 88 1016.9
20240220150017 46 256 3.0 9.0 0.00 0.02 0.00 87 1017.0
20240220144518 46 267 3.0 9.0 0.00 0.02 0.00 87 1017.0
20240220143022 46 278 2.0 9.0 0.00 0.03 0.00 87 1017.1
20240220141544 46 276 6.0 18.0 0.00 0.03 0.00 88 1017.1
20240220140013 46 246 3.0 18.0 0.00 0.03 0.00 88 1017.3
20240220134513 46 259 4.0 13.0 0.00 0.03 0.00 88 1017.2
20240220133014 46 265 5.0 16.0 0.00 0.03 0.00 89 1017.2
20240220131552 45 286 3.0 8.0 0.00 0.03 0.00 89 1017.3
20240220130056 44 279 2.0 10.0 0.00 0.03 0.00 90 1017.3
20240220124532 44 253 3.0 13.0 0.00 0.03 0.00 90 1017.2
20240220123039 44 267 4.0 11.0 0.00 0.03 0.00 90 1017.2
20240220121512 44 254 4.0 11.0 0.00 0.03 0.00 89 1017.4
20240220120012 44 264 3.0 11.0 0.00 0.03 0.00 90 1017.2
20240220114552 44 271 3.0 12.0 0.00 0.03 0.00 90 1017.1
20240220113056 44 308 3.0 12.0 0.00 0.03 0.00 90 1017.0
20240220111532 44 280 1.0 13.0 0.00 0.03 0.00 90 1017.1
20240220110032 44 273 4.0 13.0 0.00 0.03 0.00 90 1017.0
20240220104512 43 275 4.0 11.0 0.00 0.03 0.00 90 1017.1
20240220103011 43 296 3.0 13.0 0.00 0.03 0.00 90 1017.0
20240220101550 43 339 1.0 13.0 0.00 0.03 0.00 91 1017.0
20240220100151 43 259 2.0 12.0 0.00 0.03 0.00 91 1017.0
20240220094532 43 273 2.0 13.0 0.00 0.03 0.00 91 1016.9
20240220093033 43 245 1.0 12.0 0.00 0.03 0.00 91 1016.9
20240220091515 42 258 3.0 8.0 0.00 0.03 0.00 91 1016.7
20240220090012 42 258 0.0 12.0 0.00 0.03 0.00 92 1016.6
20240220084523 42 243 4.0 13.0 0.00 0.03 0.00 92 1016.5
20240220083008 0 0.0 0.0 0.00 0.03 0.00 1016.4